Regional Weather Roundup
Issued by NWS Charleston, WV

Home | Current Version | Previous Version | Text Only | Print | Product List | Glossary On
Versions: 1 2 3 4 5 6 7 8 9 10 11 12 13 14 15 16 17 18 19 20 21 22 23 24 25 26 27 28
000
ASUS41 KRLX 312010
RWRRLX
West Virginia Regional Weather Roundup
National Weather Service Charleston WV
400 PM EDT FRI OCT 31 2014

Note: "fair" indicates few or no clouds below 12,000 feet with no
significant weather and/or obstructions to visibility.

WVZ003-312100-
Northern Panhandle of West Virginia

CITY           SKY/WX    TMP DP  RH WIND       PRES   REMARKS
WHEELING       LGT RAIN  43  39  86 SW5       29.85F
$$

WVZ009-312100-
Northwest West Virginia

CITY           SKY/WX    TMP DP  RH WIND       PRES   REMARKS
PARKERSBURG    LGT RAIN  46  39  76 S5        29.88F
$$

WVZ006-312100-
Western West Virginia

CITY           SKY/WX    TMP DP  RH WIND       PRES   REMARKS
HUNTINGTON     LGT RAIN  44  41  89 SW5       29.86F
$$

WVZ015-312100-
West Central West Virginia

CITY           SKY/WX    TMP DP  RH WIND       PRES   REMARKS
CHARLESTON     DRIZZLE   47  36  65 CALM      29.85F
$$

WVZ022-031-312100-
North Central West Virginia

CITY           SKY/WX    TMP DP  RH WIND       PRES   REMARKS
CLARKSBURG     LGT RAIN  47  37  68 NW5       29.84F
MORGANTOWN     CLOUDY    48  36  63 NW6       29.85F
$$

WVZ025-035-042-045-312100-
Southern West Virginia

CITY           SKY/WX    TMP DP  RH WIND       PRES   REMARKS
BECKLEY        LGT RAIN  44  33  65 W8        29.82F
LOGAN          CLOUDY    43  41  93 CALM      29.85S FOG
BLUEFIELD      CLOUDY    44  39  82 W5        29.82F
LEWISBURG      DRIZZLE   45  37  75 CALM      29.82F
$$

WVZ047-312100-
Northern Mountains of West Virginia

CITY           SKY/WX    TMP DP  RH WIND       PRES   REMARKS
ELKINS         LGT RAIN  44  38  79 NW10      29.83F
$$

WVZ052-312100-
Eastern Panhandle of West Virginia

CITY           SKY/WX    TMP DP  RH WIND       PRES   REMARKS
MARTINSBURG    CLOUDY    53  33  46 E6        29.86F
PETERSBURG     CLOUDY    52  32  47 CALM      29.84F
$$



USA.gov is the U.S. government's official web portal to all federal, state and local government web resources and services.